Ellmau, Austria 16 day weather forecast

Slopes altitude range 620 m - 1890m

Number of lifts: 91 Pistes: 279km

In some cases the lift and piste totals shown are for the ski domain (e.g. Three Valleys) rather than individual resort (e.g. Courchevel)

Overview

The 16 day weather forecast is fully updated 4 times every day.

    • Thu 21 FEB 2019
    • Thu 21
    • 0C 3C
    • Fri 22 FEB 2019
    • Fri 22
    • 0C 1C
    • Sat 23 FEB 2019
    • Sat 23
    • -4C 0C
    • Sun 24 FEB 2019
    • Sun 24
    • -4C 2C
    • Mon 25 FEB 2019
    • Mon 25
    • -2C 4C
    • Tue 26 FEB 2019
    • Tue 26
    • -1C 5C
    • Wed 27 FEB 2019
    • Wed 27
    • 0C 8C
    • Thu 28 FEB 2019
    • Thu 28
    • 2C 10C
    • Fri 01 MAR 2019
    • Fri 01
    • 4C 13C
    • Sat 02 MAR 2019
    • Sat 02
    • 3C 14C
    • Sun 03 MAR 2019
    • Sun 03
    • 3C 8C
    • Mon 04 MAR 2019
    • Mon 04
    • 3C 15C
    • Tue 05 MAR 2019
    • Tue 05
    • 5C 9C
    • Wed 06 MAR 2019
    • Wed 06
    • 4C 8C
    • Thu 07 MAR 2019
    • Thu 07
    • 0C 3C
    • Fri 08 MAR 2019
    • Fri 08
    • -3C 0C

Date:

Time Type 0°C level Temp Chill Snow Cloud Speed Gust Dir Press
18:00 1411m 3°C 3_4 0cm 92% 4mph 5mph 1029mB
21:00 1737m 0°C 0_5 0cm 64% 5mph 6mph 1030mB
0:00 1641m 0°C 0_4 1cm 81% 4mph 6mph 1030mB
3:00 1536m 0°C 0_4 3cm 100% 4mph 5mph 1030mB
6:00 1294m 0°C 0_4 4cm 100% 4mph 7mph 1030mB
9:00 1323m 0°C 0_4 6cm 100% 4mph 6mph 1030mB
12:00 1449m 1°C 1_4 4cm 100% 4mph 5mph 1031mB
15:00 1452m 1°C 1_3 1cm 100% 3mph 4mph 1031mB
18:00 1433m 1°C 1_3 1cm 98% 3mph 4mph 1034mB
21:00 1126m -1°C -1_2 1cm 93% 2mph 3mph 1037mB
0:00 804m -3°C -3_2 1cm 84% 2mph 3mph 1038mB
3:00 610m -4°C -4_2 0cm 42% 2mph 3mph 1038mB
6:00 602m -4°C -4_2 0cm 43% 2mph 3mph 1039mB
9:00 1168m -4°C -4_3 0cm 13% 3mph 4mph 1037mB
12:00 1230m 0°C 0_3 0cm 6% 3mph 3mph 1036mB
15:00 1285m 0°C 0_3 0cm 11% 3mph 4mph 1035mB
18:00 508m 0°C 0_3 0cm 15% 3mph 4mph 1038mB
21:00 442m -5°C -5_4 0cm 0% 4mph 5mph 1039mB
0:00 441m -5°C -5_4 0cm 0% 4mph 4mph 1038mB
3:00 473m -5°C -5_4 0cm 0% 4mph 4mph 1037mB
6:00 532m -5°C -5_4 0cm 0% 4mph 5mph 1038mB
9:00 2067m -4°C -4_2 0cm 0% 2mph 3mph 1037mB
12:00 2079m 2°C 2_2 0cm 0% 2mph 3mph 1035mB
15:00 1995m 2°C 2_2 0cm 0% 2mph 3mph 1035mB
18:00 898m 2°C 2_3 0cm 0% 3mph 4mph 1038mB
21:00 845m -2°C -2_3 0cm 0% 3mph 4mph 1039mB
0:00 810m -3°C -3_3 0cm 0% 3mph 4mph 1039mB
3:00 801m -3°C -3_4 0cm 0% 4mph 5mph 1039mB
6:00 842m -3°C -3_4 0cm 0% 4mph 5mph 1040mB
9:00 2233m -2°C -2_3 0cm 0% 3mph 3mph 1039mB
12:00 2382m 4°C 4_3 0cm 1% 3mph 3mph 1036mB
15:00 2493m 4°C 4_3 0cm 7% 3mph 3mph 1035mB
18:00 2535m 4°C 4_4 0cm 17% 4mph 5mph 1037mB
21:00 1711m 0°C 0_4 0cm 34% 4mph 5mph 1038mB
0:00 1764m 0°C 0_4 0cm 56% 4mph 5mph 1037mB
3:00 1099m -1°C -1_4 0cm 8% 4mph 5mph 1036mB
6:00 1050m -1°C -1_4 0cm 27% 4mph 5mph 1036mB
9:00 2676m -1°C -1_1 0cm 61% 1mph 1mph 1034mB
12:00 2708m 5°C 5_1 0cm 58% 1mph 1mph 1032mB
15:00 2786m 5°C 5_2 0cm 72% 2mph 2mph 1031mB
18:00 2824m 5°C 5_4 0cm 64% 4mph 5mph 1032mB
21:00 2877m 0°C 0_5 0cm 55% 5mph 6mph 1033mB
0:00 2788m 0°C 0_5 0cm 38% 5mph 6mph 1032mB
3:00 1723m 0°C 0_5 0cm 14% 5mph 6mph 1030mB
6:00 2495m 0°C 0_4 0cm 20% 4mph 5mph 1030mB
9:00 2939m 0°C 0_2 0cm 18% 2mph 3mph 1028mB
12:00 3062m 8°C 8_2 0cm 9% 2mph 3mph 1026mB
15:00 3233m 8°C 8_2 0cm 0% 2mph 3mph 1025mB
18:00 3344m 8°C 8_5 0cm 3% 5mph 6mph 1026mB
21:00 3380m 2°C 2_5 0cm 1% 5mph 6mph 1026mB
0:00 3375m 2°C 2_5 0cm 0% 5mph 6mph 1025mB
3:00 3212m 2°C 2_5 0cm 0% 5mph 6mph 1024mB
6:00 2936m 2°C 2_6 0cm 0% 6mph 7mph 1024mB
9:00 2863m 2°C 2_3 0cm 26% 3mph 4mph 1022mB
12:00 2760m 10°C 10_2 0cm 13% 2mph 3mph 1021mB
15:00 2573m 10°C 10_2 0cm 23% 2mph 3mph 1020mB
18:00 2416m 10°C 10_4 0cm 19% 4mph 5mph 1023mB
21:00 2107m 1°C 1_3 0cm 63% 3mph 4mph 1024mB
0:00 2007m 1°C 1_4 0cm 66% 4mph 5mph 1025mB
3:00 1842m 5°C 5_6 0cm 4% 6mph 10mph 1025mB
6:00 1756m 4°C 4_6 0cm 10% 6mph 7mph 1026mB
9:00 1900m 4°C 4_5 0cm 12% 5mph 10mph 1024mB
12:00 2124m 13°C 13_6 0cm 39% 6mph 9mph 1022mB
15:00 2139m 14°C 14_5 0cm 33% 5mph 8mph 1021mB
18:00 2133m 14°C 14_3 0cm 33% 3mph 4mph 1023mB
21:00 1934m 6°C 6_5 0cm 12% 5mph 7mph 1024mB
0:00 1870m 5°C 5_5 0cm 20% 5mph 6mph 1024mB
3:00 2116m 4°C 4_5 0cm 50% 5mph 7mph 1022mB
6:00 1939m 3°C 3_3 0cm 47% 3mph 4mph 1022mB
9:00 2238m 3°C 3_4 0cm 60% 4mph 6mph 1019mB
12:00 2271m 14°C 14_5 0cm 63% 5mph 8mph 1016mB
15:00 2162m 15°C 15_5 0cm 61% 5mph 16mph 1013mB
18:00 2329m 15°C 15_5 0cm 50% 5mph 6mph 1013mB
21:00 2221m 7°C 7_7 0cm 68% 7mph 11mph 1012mB
0:00 1398m 7°C 7_16 0cm 76% 16mph 33mph 1013mB
3:00 953m 4°C 4_14 0cm 100% 14mph 30mph 1016mB
6:00 1020m 3°C 3_10 0cm 71% 10mph 30mph 1017mB
9:00 1049m 3°C 3_21 0cm 25% 21mph 38mph 1018mB
12:00 1208m 8°C 8_23 0cm 61% 23mph 40mph 1018mB
Morning 0.0572917mm 0.375 1478m 4°C 4_6 0cm 89% 6mph 13mph 1023mB
Afternoon 0.00520833mm 0 2592m 15°C 15_6 0cm 61% 6mph 11mph 1012mB
Morning 0.0989583mm 0 1934m 7°C 7_5 0cm 85% 5mph 15mph 1011mB
Afternoon 0.348958mm 0.3125 1514m 9°C 9_6 0cm 88% 6mph 13mph 1009mB
Morning 0.223958mm 0.1875 1905m 4°C 4_6 0cm 84% 6mph 11mph 1005mB
Afternoon 0.317708mm 0.8125 1324m 8°C 8_19 0cm 66% 19mph 39mph 1006mB
Morning 0.130208mm 1.0625 826m 2°C 2_10 8cm 96% 10mph 25mph 1015mB
Afternoon 0.171875mm 1.5625 715m 3°C 3_10 12cm 74% 10mph 16mph 1019mB
Morning 0.270833mm 3 217m -2°C -2_8 24cm 86% 8mph 19mph 1028mB
Afternoon 0.5625mm 4.25 552m 0°C 0_9 34cm 100% 9mph 15mph 1032mB
Morning 0.151042mm 1.625 0m -6°C -6_5 13cm 63% 5mph 6mph 1038mB
Afternoon 0mm 0 1006m 6°C 6_1 0cm 4% 1mph 4mph 1029mB

16 day outlook at a glance

Forecast issued: 21/02/2019 17:54:17

Chat

Your comments and questions. In a resort? Let us know what it's like!


Characters left 250

For terms and conditions see Readers Comments on the Cookie and privacy policy page.